Belize, Belize

6:32 AM CST on June 26, 2017 (GMT -0600)
Philip S W Goldson International

Weather History for MZBZ - September, 2012

Change the Weather History Date:

Tuesday, September 4, 2012

  Actual Average Record
Temperature  
Mean Temperature 82 °F -  
Max Temperature 88 °F 88 °F 93 °F (2004)
Min Temperature 76 °F 75 °F 75 °F (2004)
Cooling Degree Days 17    
Growing Degree Days 32 (Base 50)    
Moisture  
Dew Point 76 °F    
Average Humidity 77    
Maximum Humidity 100    
Minimum Humidity 62    
Precipitation  
Precipitation 0.00 in 0.36 in - ()
Sea Level Pressure  
Sea Level Pressure 29.95 in    
Wind  
Wind Speed 3 mph ()    
Max Wind Speed 7 mph    
Max Gust Speed -    
Visibility 8.0 miles    
Events Rain    
Averages and records for this station are not official NWS values.
T = Trace of Precipitation, MM = Missing Value Source: Averaged Metar Reports

Daily Weather History Graph

Daily Weather History Graph

Search for Another Location

Airport or City:

Trip Planner

Search our weather history database for the weather conditions in past years. The results will help you decide how hot, cold, wet, or windy it might be!

Date:

Astronomy

Sep. 04, 2012 Rise Set
Actual Time 5:39 AM CST 6:04 PM CST
Civil Twilight 5:17 AM CST 6:25 PM CST
Nautical Twilight 4:52 AM CST 6:51 PM CST
Astronomical Twilight 4:26 AM CST 7:17 PM CST
Moon 8:45 PM CST (9/4) 9:00 AM CST (9/4)
Length of Visible Light 13h 08m
Length of Day
12h 24m
Waning Gibbous, 83% of the Moon is Illuminated
Sep 4
Waning Gibbous
Sep 8
Last Quarter
Sep 15
New
Sep 22
First Quarter
Sep 29
Full

Hourly Weather History & Observations

Time (CST) Temp. Heat Index Dew Point Humidity Pressure Visibility Wind Dir Wind Speed Gust Speed Precip Events Conditions
3:00 AM 79 °F - 76 °F 89% 29.95 in 12 mi East 3.5 mph - -   Scattered Clouds
5:00 AM 77.0 °F - 77.0 °F 100% 29.94 in 6.2 mi Calm Calm - N/A   Scattered Clouds
6:00 AM 77 °F - 75 °F 92% 29.95 in 12 mi Calm Calm - -   Mostly Cloudy
6:00 AM 77.0 °F - 75.2 °F 94% 29.95 in 6.2 mi Calm Calm - N/A   Mostly Cloudy
7:00 AM 78.8 °F - 77.0 °F 94% 29.95 in 6.2 mi Calm Calm - N/A   Scattered Clouds
8:00 AM 82.4 °F 90.9 °F 77.0 °F 84% 29.98 in 6.2 mi Calm Calm - N/A   Mostly Cloudy
9:00 AM 84 °F - 78 °F 78% 29.99 in 12 mi Calm Calm - - Rain Light Rain Showers
9:00 AM 84.2 °F 96.1 °F 78.8 °F 84% 29.98 in 6.2 mi Calm Calm - N/A   Mostly Cloudy
10:00 AM 86.0 °F 96.9 °F 77.0 °F 74% 29.98 in 6.2 mi ESE 5.8 mph - N/A   Mostly Cloudy
11:00 AM 87.8 °F 99.7 °F 77.0 °F 70% 29.98 in 6.2 mi SE 6.9 mph - N/A   Scattered Clouds
12:00 PM 87 °F - 76 °F 62% 29.97 in 12 mi SSE 6.9 mph - -   Partly Cloudy
12:00 PM 87.8 °F 97.6 °F 75.2 °F 66% 29.96 in 6.2 mi SSE 6.9 mph - N/A   Scattered Clouds
1:00 PM 89.6 °F 99.8 °F 75.2 °F 62% 29.95 in 6.2 mi SE 6.9 mph - N/A   Scattered Clouds
2:00 PM 87.8 °F 99.7 °F 77.0 °F 70% 29.93 in 6.2 mi ESE 6.9 mph - N/A   Scattered Clouds
3:00 PM 87 °F - 76 °F 62% 29.92 in 12 mi ESE 6.9 mph - -   Scattered Clouds
3:00 PM 87.8 °F 97.6 °F 75.2 °F 66% 29.91 in 6.2 mi ESE 6.9 mph - N/A   Partly Cloudy
4:00 PM 87.8 °F 97.6 °F 75.2 °F 66% 29.90 in 6.2 mi ESE 5.8 mph - N/A   Partly Cloudy
5:00 PM 87.8 °F 97.6 °F 75.2 °F 66% 29.90 in 6.2 mi East 6.9 mph - N/A   Partly Cloudy
6:00 PM 84 °F - 75 °F 69% 29.92 in 12 mi East 5.8 mph - -   Scattered Clouds
6:00 PM 84.2 °F 92.3 °F 75.2 °F 74% 29.92 in 6.2 mi East 5.8 mph - N/A   Scattered Clouds
7:00 PM 82.4 °F 90.9 °F 77.0 °F 84% 29.92 in 6.2 mi East 4.6 mph - N/A   Partly Cloudy
8:00 PM 80.6 °F 87.1 °F 77.0 °F 89% 29.95 in 6.2 mi ESE 3.5 mph - N/A   Partly Cloudy
9:00 PM 80 °F - 76 °F 83% 29.96 in 12 mi ESE 2.3 mph - -   Scattered Clouds